Location: ??
(30.3018°N, 114.2573°E)
Time: 08:45:42
(UTC+00:00)

Daily predictions for brighter satellites

Satellite Brightness Start Highest point End
(mag) Time Altitude Azimuth Time Altitude Azimuth Time Altitude Azimuth
SJ-6B 3.0 12:02:47 10° SSE 12:06:23 47° ENE 12:09:58 10° N
STARLINK-1178 4.4 12:03:46 10° NW 12:07:45 47° SW 12:11:43 10° SSE
Cosmos 1464 Rocket 4.4 12:04:01 10° NNW 12:10:21 69° W 12:16:39 10° S
Centaur AC-125 3.2 12:08:06 10° WSW 12:11:12 61° S 12:22:09 10° E
Cosmos 909 Rocket 4.5 12:05:53 10° NNW 12:12:59 54° ENE 12:18:15 14° SE
FREGAT/IRIS 2.3 12:11:41 10° S 12:14:20 82° W 12:16:59 10° NNW
NOSS 8 (E) 4.4 12:12:58 10° SSW 12:16:57 74° ESE 12:20:08 10° NNE
ASTRO E2 2.6 12:13:42 10° WSW 12:17:40 83° SSE 12:21:31 11° E
SPOT 3 Rocket 4.1 12:13:36 13° SE 12:17:44 40° ENE 12:22:31 10° N
NOSS 2-2 (D) 4.4 12:16:37 15° SSE 12:18:14 19° ESE 12:20:52 10° ENE
Ariane Rocket 3.2 12:13:53 10° S 12:18:55 74° WSW 12:24:01 10° NNW
Cosmos 1544 3.6 12:16:33 10° NNE 12:19:56 37° E 12:22:01 19° SE
Cosmos 1908 Rocket 3.8 12:17:35 10° N 12:22:01 72° W 12:26:28 10° S
Resurs 01 Rocket 2.9 12:20:25 17° ESE 12:22:42 25° ENE 12:26:17 10° NNE
STARLINK-1085 4.5 12:21:07 10° NNW 12:25:00 38° NE 12:27:29 19° ESE
SEDSat Delta rocket 4.3 12:18:42 10° W 12:25:18 60° SSW 12:30:13 19° SE
Sich 1 Rocket 4.2 12:21:53 10° NNE 12:26:10 39° E 12:28:50 20° SE
Cosmos 371 Rocket 3.2 12:21:46 10° S 12:26:32 66° ESE 12:31:21 10° NNE
H-2A R/B 2.9 12:21:50 10° S 12:26:38 49° W 12:31:36 10° NNW
Cosmos 1634 Rocket 4.4 12:21:33 10° N 12:27:36 46° E 12:32:14 17° SSE
MOS 1 4.4 12:22:27 10° SSE 12:28:09 82° WSW 12:33:52 10° NNW
Aureole 1 Rocket 3.8 12:24:32 10° N 12:29:40 73° ENE 12:35:23 15° SSE
STARLINK-1086 4.3 12:26:02 10° NNW 12:29:59 43° NE 12:32:15 22° ESE
Okean 2 Rocket 4.2 12:28:30 10° NNE 12:32:09 25° E 12:33:31 22° ESE
Cosmos 1515 4.4 12:28:35 10° SSW 12:32:18 54° W 12:36:03 10° N
MetOp-A 4.1 12:28:00 14° SSE 12:32:35 69° ENE 12:37:54 10° N
STARLINK-1095 4.1 12:30:57 10° NNW 12:34:58 48° NE 12:37:02 25° ESE
NOSS 2-2 (E) 3.3 12:32:02 10° S 12:35:32 43° ESE 12:38:58 10° NE
Cosmos 724 4.3 12:29:41 10° NNW 12:35:39 87° WSW 12:40:12 18° SSE
IUS-1 SRM-2 2.5 12:35:21 10° WSW 12:37:13 24° SSW 12:37:13 24° SSW
SL-08 RB Rocket 4.1 12:34:04 10° S 12:38:37 63° W 12:43:10 10° NNW
CREW DRAGON DEMO-1 DEB 4.4 12:37:15 10° WNW 12:39:56 28° SW 12:41:15 20° S
STARLINK-1077 3.9 12:35:53 10° NNW 12:39:57 54° NE 12:41:49 29° ESE
GPS 2-04 Rocket1 3.9 12:38:35 10° WNW 12:41:47 33° N 12:44:50 11° ENE
SL-4 R/B 3.1 12:39:43 10° S 12:43:40 29° SE 12:47:48 10° ENE
Cosmos 676 Rocket 4.1 12:38:54 10° N 12:44:06 59° ENE 12:46:56 27° SE
STARLINK-1075 3.8 12:40:52 10° NW 12:44:57 61° NE 12:46:37 33° ESE
SL-4 R/B 2.9 12:44:38 10° N 12:46:41 20° NE 12:46:41 20° NE
Resurs 1-3 3.5 12:45:12 25° SSE 12:47:45 78° ENE 12:52:08 10° N
STARLINK-1093 3.6 12:45:47 10° NW 12:49:55 69° NE 12:51:22 38° ESE
Meteor 2-4 Rocket 3.9 12:49:16 10° SSW 12:54:36 67° W 12:59:56 10° N
STARLINK-1074 3.5 12:50:46 10° NW 12:54:54 78° NE 12:56:10 43° SE
Sakura Rocket 4.2 12:51:04 10° W 12:57:26 79° S 13:04:22 18° E
COSMOS 2406 3.3 12:52:25 10° NNW 12:58:10 76° WSW 13:01:35 25° S
SWIFT 4.4 12:55:49 10° SSW 12:56:56 14° SSW 12:56:56 14° SSW
Cosmos 304 Rocket 3.7 12:55:50 22° S 12:58:49 63° ESE 13:03:32 10° NNE
NOSS 2-2 (C) 2.9 12:56:37 12° SSW 13:00:01 72° ESE 13:03:35 10° NNE
CZ-2C R/B 3.9 12:56:06 10° N 13:01:26 45° WNW 13:06:41 10° SW
Cosmos 2297 3.6 12:56:21 10° S 13:01:57 72° ESE 13:07:38 10° NNE
ATLAS 2AS CENTAUR R/B 4.3 13:03:57 19° E 13:03:57 19° E 13:07:49 10° ENE
Cosmos 1300 Rocket 3.7 12:59:02 10° N 13:03:22 53° E 13:04:13 45° ESE
Cosmos 1943 Rocket 3.1 13:04:41 27° E 13:04:41 27° E 13:08:46 10° NE
Lacrosse 5 2.9 12:59:54 10° NNW 13:04:30 34° NE 13:06:07 27° E
STARLINK-1088 3.5 13:00:43 10° NW 13:04:50 83° SW 13:05:44 54° SSE
Cosmos 1437 Rocket 2.5 13:07:34 61° SSE 13:08:08 77° E 13:11:56 10° N
STARLINK-1115 3.6 13:05:41 10° NW 13:09:48 73° SW 13:10:31 57° SSE
Cosmos 1833 Rocket 2.6 13:05:30 10° NNW 13:11:08 84° ENE 13:13:17 40° SSE
Meteor 1-23 Rocket 4.4 13:10:02 38° SE 13:11:51 53° E 13:17:20 10° NNE
Cosmos 1674 Rocket 3.4 13:13:56 57° SSE 13:14:38 70° E 13:19:00 10° N
STARLINK-1076 3.7 13:10:40 10° NW 13:14:46 64° SW 13:15:17 57° S
Cosmos 2082 Rocket 2.4 13:11:36 10° N 13:17:11 54° ENE 13:18:35 43° ESE
Cosmos 1378 Rocket 3.6 13:17:46 55° E 13:17:46 55° E 13:22:03 10° NNE
Cosmos 2369 Rocket 3.5 13:20:32 23° ENE 13:20:32 23° ENE 13:23:34 10° NE
STARLINK-1092 3.8 13:15:41 10° NW 13:19:44 57° SW 13:20:05 54° SSW
Aureole 2 Rocket 2.9 13:20:05 50° WNW 13:20:07 50° WNW 13:23:08 10° N
Landsat 7 4.2 13:22:17 44° E 13:22:32 44° ENE 13:27:02 10° N
ATLAS 5 CENTAUR R/B 4.1 13:10:47 10° S 13:24:14 37° SE 13:24:14 37° SE
STARLINK-1080 4.1 13:20:42 10° NW 13:24:42 49° SW 13:24:52 49° SW
Milstar 3 Cent rocket 3.9 13:17:03 10° SW 13:24:44 51° SSE 13:40:57 10° E
IGS 5A 3.9 13:29:40 47° NE 13:29:40 47° NE 13:33:12 10° N
STARLINK-1090 4.3 13:25:43 10° NW 13:29:39 43° SW 13:29:39 43° SW
Nadezhda 4 Rocket 3.9 13:30:24 48° SSE 13:32:02 68° E 13:38:06 10° NNE
ISS -1.9 13:30:11 10° NNW 13:32:23 26° NNE 13:32:23 26° NNE
Hubble Space Telescope 3.1 13:32:06 10° WSW 13:33:11 14° SW 13:33:11 14° SW
Orbus 7S 4.0 13:31:31 10° WSW 13:34:57 65° S 13:35:30 60° SE
Cosmos 1066 Rocket 4.0 13:35:00 52° S 13:36:23 89° ESE 13:41:46 10° N
SPOT 5 4.0 13:37:23 32° ENE 13:37:23 32° ENE 13:41:52 10° N
ERS-1 Rocket 3.7 13:39:42 38° ENE 13:39:42 38° ENE 13:44:03 10° N
MetOp-B 4.3 13:46:36 53° SSW 13:47:38 64° WSW 13:52:57 10° NNW
Cosmos 2279 Rocket 4.4 13:43:25 10° NNW 13:49:29 58° W 13:51:48 37° SSW
ASTRO E2 4.3 13:54:12 10° W 13:56:21 30° WNW 13:56:21 30° WNW
Cosmos 1741 Rocket 4.0 13:53:12 10° NNW 13:58:22 76° W 13:58:22 76° W
Resurs 01 Rocket 3.6 13:57:59 20° WSW 13:59:02 22° W 14:02:29 10° NW
SPOT 1/Viking Rocket 3.5 14:02:46 79° WNW 14:02:46 79° WNW 14:07:44 10° NNW
Spot 2 Rocket 3.9 14:03:18 53° WSW 14:03:28 53° W 14:08:24 10° NNW
ATLAS 3B CENTAUR R/B 2.9 13:52:40 10° W 14:06:54 77° S 14:08:20 61° ESE
Terra 3.0 14:08:50 35° NNE 14:08:50 35° NNE 14:12:00 10° N
Cosmos 1850 Rocket 4.4 14:02:56 10° NNW 14:08:09 57° WSW 14:08:09 57° WSW
Okean 1 Rocket 4.0 14:05:51 10° N 14:09:06 47° NNW 14:09:06 47° NNW
Cosmos 1092 Rocket 3.8 14:17:04 81° WSW 14:17:13 82° W 14:23:23 10° N
SL-4 R/B 3.8 14:18:58 10° WSW 14:23:18 36° NW 14:27:45 10° NNE
NOSS 3-4 (A) 4.1 14:27:07 41° NE 14:27:07 41° NE 14:31:01 10° NE
NOSS 3-4 (C) 4.2 14:27:16 40° NE 14:27:16 40° NE 14:31:07 10° NE
Cosmos 1627 Rocket 4.5 14:31:24 80° NW 14:31:24 80° NW 14:37:32 10° N
Lacrosse 5 3.9 14:43:04 10° WNW 14:45:19 21° W 14:45:19 21° W
Cosmos 1943 Rocket 3.8 14:46:06 25° W 14:47:41 29° WNW 14:52:29 10° N
ATLAS 2AS CENTAUR R/B 3.1 14:51:16 60° WSW 14:52:44 73° WNW 15:00:46 10° NNE
H-2A ROCKET BODY 4.2 14:49:46 10° WSW 14:57:10 78° SSE 15:49:58 10° E
Cosmos 2082 Rocket 4.4 14:57:37 10° WNW 15:00:26 15° W 15:00:26 15° W
Cosmos 2369 Rocket 3.6 15:02:14 31° WNW 15:02:43 31° WNW 15:07:44 10° N
NOSS 3-2 (A) 4.1 14:57:39 10° NNW 15:05:38 76° ENE 15:05:40 76° ENE
SeaSat 1 4.1 15:03:06 10° NNE 15:05:31 29° N 15:05:31 29° N
USA 238 DEB 4.0 15:09:43 10° NNW 15:16:09 71° NNW 15:16:09 71° NNW
USA 238 4.0 15:09:49 10° NNW 15:16:16 71° NNW 15:16:16 71° NNW
ATLAS CENTAUR R/B 4.4 15:35:06 14° N 15:35:06 14° N 15:35:56 10° N
COSMOS 2455 4.3 16:00:29 31° NW 16:00:29 31° NW 16:04:56 10° N
CENTAUR R/B 3.4 16:02:26 10° NNW 16:09:40 66° WNW 16:09:40 66° WNW
ATLAS 3B R/B 3.4 16:06:43 10° NNW 16:12:18 48° NNE 16:12:18 48° NNE
Cosmos 2227 Rocket 4.0 16:52:19 10° N 16:56:25 25° NE 16:56:25 25° NE
CZ-4C R/B 3.6 17:20:52 30° N 17:20:52 30° N 17:23:46 10° NNE
USA 215 3.9 17:31:02 47° NW 17:31:02 47° NW 17:35:29 10° NW
Cosmos 1980 Rocket 3.2 17:40:10 41° NE 17:40:10 41° NE 17:43:56 10° NNE
Resurs 1-4 Rocket 3.2 17:39:16 10° NNE 17:42:50 41° NE 17:42:50 41° NE
CZ-2D R/B 2.9 17:52:14 10° NNE 17:55:53 46° NNE 17:55:53 46° NNE
SJ 16-02 3.8 17:55:12 10° NNW 17:56:19 17° NNW 17:56:19 17° NNW
SL-16 R/B 2.7 18:04:02 67° ENE 18:04:07 67° ENE 18:10:14 10° N
Cosmos 2297 Rocket 3.5 17:58:44 10° NNW 18:01:43 32° NW 18:01:43 32° NW
Cosmos 2181 Rocket 4.0 18:05:22 10° N 18:11:44 82° ENE 18:11:44 82° ENE
Cosmos 2322 Rocket 3.8 18:13:16 23° ESE 18:13:44 24° ESE 18:18:07 10° NE
Cosmos 2082 4.0 18:08:28 10° NNW 18:13:23 63° NNE 18:13:23 63° NNE
Cosmos 2278 4.4 18:15:50 45° NNW 18:15:50 45° NNW 18:20:17 10° N
Cosmos 1937 Rocket 4.2 18:13:31 10° NNW 18:17:18 49° NNW 18:17:18 49° NNW
ARIANE 5 R/B 4.1 18:14:56 10° NE 18:19:00 25° E 18:19:23 24° ESE
ATLAS CENTAUR R/B 3.2 18:17:18 10° NNW 18:21:14 64° ENE 18:31:22 10° SE
Lacrosse 4 Rocket 3.2 18:20:48 10° NNW 18:22:58 28° N 18:22:58 28° N
Cosmos 1697 Rocket 4.2 18:27:37 24° NW 18:27:37 24° NW 18:31:34 10° N
CZ-4B R/B 4.0 18:24:58 10° N 18:29:19 55° NNW 18:29:19 55° NNW
NPP 4.2 18:26:03 10° N 18:30:27 48° NW 18:30:27 48° NW
Cosmos 2227 Rocket 3.8 18:35:59 10° NW 18:38:10 21° WNW 18:38:10 21° WNW
Cosmos 1892 4.4 18:42:17 29° ENE 18:42:17 29° ENE 18:45:13 10° NNE
Cosmos 1241 Rocket 4.3 18:41:49 73° S 18:42:24 81° ESE 18:48:37 10° NNE
SL-16 R/B 2.4 18:44:32 57° SE 18:45:10 61° ESE 18:50:45 10° NNE
Cosmos 2285 Rocket 3.9 18:39:18 10° NNW 18:45:35 66° WSW 18:45:37 66° WSW
Cosmos 2221 3.7 18:43:09 10° NNE 18:47:13 37° E 18:48:02 34° ESE
Cosmos 1315 Rocket 4.5 18:44:31 10° NNE 18:47:57 28° E 18:48:40 27° E
Cosmos 372 Rocket 4.1 18:42:53 10° N 18:48:01 69° ENE 18:48:53 57° SE
STARLINK-1277 4.4 18:52:24 49° ENE 18:52:24 49° ENE 18:55:35 10° NE
IRS-P3 Rocket 4.5 18:48:21 10° N 18:53:38 73° WNW 18:53:46 72° W
IRS-1C 4.0 18:49:10 10° NNE 18:54:31 87° ESE 18:55:06 72° S
STARLINK-1299 4.0 18:56:31 62° NNE 18:56:31 62° NNE 19:00:07 10° NE
STARLINK-1276 4.1 18:57:10 57° ENE 18:57:10 57° ENE 19:00:34 10° NE
SL-08 R/B 4.3 18:54:16 26° SE 18:56:27 44° ENE 19:00:50 10° N
Cosmos 836 Rocket 4.3 18:56:55 79° SW 18:57:15 86° WNW 19:02:33 10° NNE
Nadezhda 3 Rocket 4.4 18:52:56 10° N 18:59:11 62° E 19:03:11 23° SSE
FALCON 9 R/B 4.2 18:52:29 12° WNW 18:59:52 89° SSW 19:34:16 10° ESE
IRIDIUM 114 4.4 18:59:58 53° SSE 19:01:06 73° E 19:06:19 10° N
STARLINK-1305 3.9 19:01:58 66° NE 19:01:58 66° NE 19:05:33 10° NE
NOSS 2-1 (E) 4.2 19:04:46 37° N 19:04:46 37° N 19:07:03 10° NNE
SL-19 R/B 4.5 18:59:33 10° NNE 19:03:32 72° NE 19:03:32 72° NE
ADEOS II 2.1 18:58:45 10° N 19:03:56 61° WNW 19:04:17 59° W
Uosat 12 SS-18 rocket 4.1 18:59:58 10° NNW 19:04:23 86° ENE 19:05:19 58° SSE
STARLINK-1262 3.7 19:06:45 73° NNE 19:06:45 73° NNE 19:10:32 10° NE
STARLINK-61 3.9 19:08:25 58° E 19:08:25 58° E 19:11:49 10° NE
ERS-2 3.9 19:07:34 18° ESE 19:09:32 30° ENE 19:12:47 10° N
IRIDIUM 103 4.2 19:09:06 56° S 19:10:16 90° WNW 19:15:30 10° N
STARLINK-1300 3.6 19:11:33 73° NNW 19:11:33 73° NNW 19:15:30 10° NE
STARLINK-1269 4.3 19:10:42 10° NNW 19:14:45 55° NE 19:18:49 10° SE
Cosmos 2360 Rocket 3.1 19:12:11 26° SSE 19:14:51 43° ESE 19:20:08 10° NE
STARLINK-1295 3.7 19:16:18 66° NW 19:16:19 66° NW 19:20:26 10° NE
Cosmos 2341 Rocket 4.1 19:13:37 30° S 19:17:00 75° E 19:23:20 10° N
IDEFIX/ARIANE 42P 3.3 19:12:09 10° NNE 19:17:16 50° E 19:20:04 25° SSE
Meteor 2-2 Rocket 4.4 19:11:13 10° N 19:17:16 78° E 19:21:25 21° SSE
STARLINK-1200 4.0 19:15:37 10° NW 19:19:44 62° NE 19:23:49 10° SE
STARLINK-1287 3.8 19:21:06 57° WNW 19:21:18 58° NW 19:25:24 10° NE
Cosmos 1980 Rocket 4.0 19:21:55 15° WNW 19:22:46 15° WNW 19:25:59 10° NNW
Cosmos 1295 Rocket 4.5 19:21:19 41° SSW 19:23:35 66° W 19:29:52 10° N
Resurs 1-4 Rocket 4.1 19:21:29 10° NW 19:23:44 13° WNW 19:23:55 13° WNW
STARLINK-1192 3.8 19:20:36 10° NW 19:24:43 70° NE 19:28:50 10° SE
Fermi 4.4 19:27:19 39° SSE 19:27:19 39° SSE 19:30:33 10° ESE
STARLINK-1278 4.4 19:27:37 38° WNW 19:28:15 41° NW 19:32:17 10° NNE
IRIDIUM 106 4.4 19:27:21 46° SW 19:28:34 57° W 19:33:42 10° N
H-2A R/B 3.1 19:24:52 10° SSE 19:29:00 46° ENE 19:33:14 10° N
GEOS 3 Rocket 4.2 19:29:50 35° W 19:29:50 35° W 19:33:50 10° NW
STARLINK-1244 3.6 19:25:33 10° NW 19:29:41 80° NE 19:33:49 10° SE
STARLINK-1280 4.4 19:29:22 36° WNW 19:30:05 40° NW 19:34:06 10° NNE
Cosmos 1825 2.9 19:29:47 31° SSE 19:31:11 49° E 19:34:50 10° NNE
STARLINK-1302 4.1 19:30:40 42° WNW 19:31:17 46° NW 19:35:17 10° NNE
STARLINK-38 4.4 19:32:15 32° SSE 19:32:54 35° SE 19:36:22 10° ENE
STARLINK-65 4.4 19:33:49 33° SSE 19:34:32 36° SE 19:38:01 10° ENE
STARLINK-1138 3.5 19:30:31 10° NW 19:34:40 89° NE 19:38:48 10° SE
STARLINK-53 4.2 19:35:30 36° SSE 19:36:14 40° SE 19:39:48 10° ENE
STARLINK-1273 4.3 19:35:25 36° WNW 19:36:15 41° NW 19:40:11 10° NNE
Cosmos 2219 Rocket 4.4 19:32:26 10° SE 19:36:20 20° E 19:40:14 10° NE
ERBS 2.6 19:33:00 10° NNW 19:36:20 65° NE 19:39:39 10° SE
CZ-3 R/B 4.2 19:12:00 26° SW 19:37:01 61° SSE 19:47:50 10° E
STARLINK-1143 3.4 19:35:29 10° NW 19:39:37 81° SW 19:43:44 10° SE
Skynet4D Del rocket 3.8 19:37:03 32° WSW 19:39:43 57° S 19:45:10 10° ESE
COBE Rocket 3.8 19:36:52 25° S 19:39:48 74° W 19:44:53 10° NNW
CZ-4C R/B 3.7 19:40:34 13° SSE 19:43:40 56° ENE 19:47:14 10° N
STARLINK-1241 3.4 19:40:30 10° NW 19:44:38 71° SW 19:48:43 10° SE
STARLINK-71 4.0 19:44:02 35° S 19:45:21 52° SE 19:49:16 10° NE
Cosmos 2058 3.9 19:46:39 29° W 19:46:54 30° W 19:50:38 10° NNW
Cosmos 1869 3.9 19:44:22 10° NNW 19:47:53 35° W 19:47:53 35° W
SL-16 R/B 4.3 19:49:08 13° W 19:49:08 13° W 19:51:02 10° WNW
USA 234 3.7 19:41:55 10° NE 19:48:16 53° SE 19:53:00 18° SSW
Cosmos 2218 Rocket 4.1 19:44:04 14° S 19:49:31 83° E 19:55:55 10° N
STARLINK-1239 3.5 19:45:29 10° NW 19:49:34 63° SW 19:53:39 10° SSE
Cosmos 1076 Rocket 4.4 19:50:06 29° W 19:50:43 30° W 19:54:34 10° NNW
CZ-4B R/B 4.5 19:49:33 10° E 19:51:03 13° ENE 19:52:32 10° NE
CZ-2D R/B 4.1 19:48:40 10° N 19:52:38 40° WNW 19:53:59 31° WSW
Cosmos 2263 Rocket 2.0 19:47:22 10° NNW 19:52:56 72° WSW 19:58:27 10° S
STARLINK-1017 4.4 19:51:37 25° S 19:53:33 43° SE 19:57:30 10° NE
STARLINK-1240 3.6 19:50:28 10° NW 19:54:31 55° SW 19:58:33 10° SSE
SL-8 Rocket 4.0 19:51:32 19° SSW 19:56:14 71° W 20:02:30 10° N
CZ-2C R/B 2.8 19:52:35 10° N 19:56:17 57° WNW 19:57:47 32° SW
Cosmos 2322 Rocket 3.0 19:55:06 24° WSW 19:57:30 35° WNW 20:02:37 10° N
ARIANE 5 R/B 3.6 19:53:48 10° NNW 19:57:59 27° WNW 19:59:43 22° WSW
STARLINK-1023 4.2 19:56:24 25° SSW 19:58:30 49° SE 20:02:30 10° NE
STARLINK-1203 3.8 19:55:09 10° NW 19:59:12 49° SW 20:03:14 10° SSE
STARLINK-1216 3.7 19:55:29 10° NW 19:59:28 48° SW 20:03:27 10° SSE
Cosmos 1408 3.5 20:02:36 28° WSW 20:03:20 30° W 20:06:37 10° NNW
STARLINK-1007 4.0 20:01:10 24° SSW 20:03:27 56° SE 20:07:31 10° NE
USA 229 DEB 4.1 19:56:41 10° NNW 20:04:10 77° ENE 20:11:52 10° SSE
USA 229 4.1 19:56:48 10° NNW 20:04:15 76° ENE 20:11:57 10° SSE
STARLINK-1237 3.9 20:00:31 10° WNW 20:04:26 42° SW 20:08:20 10° SSE
Meteor 1-28 Rocket 3.9 20:04:12 28° SW 20:05:12 33° W 20:08:38 10° NNW
STARLINK-1010 3.8 20:04:17 24° SSW 20:06:45 68° SE 20:10:57 10° NE
STARLINK-1048 3.8 20:05:57 23° SSW 20:08:26 64° SE 20:12:31 10° NE
NOSS 3-1 (C) 4.3 20:00:21 10° NNW 20:08:28 89° ENE 20:17:25 10° SSE
Cosmos 2237 4.4 20:04:48 21° SW 20:08:29 56° WNW 20:14:06 10° N
Cosmos 2151 3.2 20:06:10 23° SSW 20:08:31 48° W 20:12:40 10° N
STARLINK-1202 4.0 20:05:34 10° WNW 20:09:24 37° SW 20:13:13 10° SSE
STARLINK-24 3.5 20:09:51 24° SW 20:12:08 75° NW 20:16:09 10° NE
STARLINK-54 3.2 20:11:07 26° SW 20:13:02 71° NW 20:16:38 10° NE
STARLINK-1049 3.7 20:10:45 21° SSW 20:13:24 73° SE 20:17:31 10° NE
BREEZE-M TANK 2.5 20:12:29 19° SW 20:15:01 57° SE 20:17:57 10° ENE
STARLINK-81 3.3 20:12:59 23° SW 20:15:12 78° NW 20:18:59 10° NE
STARLINK-1051 3.6 20:15:31 20° SW 20:18:21 83° SE 20:22:29 10° NE
STARLINK-77 3.4 20:16:08 22° SW 20:18:28 72° NW 20:22:14 10° NE
Cosmos 1606 3.7 20:15:02 10° N 20:18:41 47° E 20:22:20 10° SSE
STARLINK-1246 4.4 20:15:42 10° WNW 20:19:19 29° SW 20:22:55 10° S
STARLINK-79 3.3 20:18:06 21° SW 20:20:21 66° NW 20:23:57 10° NE
COSMOS 2428 3.5 20:16:53 10° S 20:22:21 50° ESE 20:27:48 10° NNE
Cosmos 2221 4.5 20:22:35 10° WNW 20:24:20 12° W 20:24:50 12° W
STARLINK-50 3.7 20:22:10 18° WSW 20:24:56 59° NW 20:28:50 10° NE
STARLINK-78 3.6 20:22:27 18° WSW 20:25:01 59° NW 20:28:46 10° NE
Cosmos 1933 4.4 20:21:21 10° N 20:25:15 46° E 20:29:07 10° SSE
OE (NEXTSAT) 4.2 20:22:08 10° NW 20:25:36 77° SW 20:29:03 10° SE
STARLINK-57 3.7 20:24:10 18° WSW 20:26:48 52° NW 20:30:29 10° NNE
STARLINK-1028 3.6 20:25:06 16° SW 20:28:19 78° NW 20:32:27 10° NE
Cosmos 1328 Rocket 4.0 20:25:00 10° N 20:29:21 64° E 20:33:39 10° SSE
STARLINK-49 3.8 20:26:43 16° WSW 20:29:32 52° NW 20:33:15 10° NNE
SL-16 R/B 4.1 20:26:31 10° W 20:29:39 15° WNW 20:32:47 10° NNW
STARLINK-27 3.8 20:28:22 16° WSW 20:31:15 50° NW 20:34:58 10° NNE
STARLINK-74 3.8 20:28:44 16° WSW 20:31:35 49° NW 20:35:16 10° NNE
STARLINK-1021 3.7 20:29:53 15° SW 20:33:17 69° NW 20:37:25 10° NE
STARLINK-31 4.0 20:31:55 14° WSW 20:34:53 44° NW 20:38:32 10° NNE
STARLINK-69 4.1 20:32:10 14° WSW 20:35:01 39° NW 20:38:29 10° NNE
STARLINK-39 4.0 20:32:00 14° WSW 20:35:01 45° NW 20:38:42 10° NNE
Cosmos 1538 Rocket 4.3 20:31:24 10° SSW 20:36:36 55° WNW 20:41:52 10° N
STARLINK-1019 3.8 20:34:39 13° SW 20:38:16 61° NW 20:42:22 10° NE
PSLV R/B 3.9 20:35:17 10° N 20:39:16 43° WNW 20:43:13 10° SW
STARLINK-21 4.2 20:36:11 12° WSW 20:39:22 39° NW 20:42:59 10° NNE
STARLINK-76 4.2 20:37:38 12° WSW 20:40:44 37° NW 20:44:10 10° NNE
STARLINK-45 4.4 20:37:32 12° WSW 20:40:45 34° NW 20:44:16 10° NNE
STARLINK-70 4.4 20:38:22 11° WSW 20:41:36 35° NW 20:45:05 10° NNE
STARLINK-23 4.2 20:38:36 12° WSW 20:41:42 36° NW 20:45:05 10° NNE
ERS-2 4.1 20:42:10 10° WSW 20:43:07 11° W 20:44:15 10° WNW
STARLINK-1012 4.0 20:39:26 11° WSW 20:43:14 54° NW 20:47:17 10° NNE
STARLINK-32 4.3 20:40:29 11° WSW 20:43:41 34° NW 20:47:04 10° NNE
CZ-2C R/B 2.6 20:38:51 10° N 20:43:59 66° WNW 20:49:06 10° SSW
Cosmos 1500 Rocket 4.1 20:39:46 10° S 20:44:08 65° E 20:48:33 10° NNE
BREEZE-M DEB (TANK) 3.5 20:38:59 10° WSW 20:44:23 44° NW 20:47:13 10° NE
STARLINK-25 4.4 20:42:57 10° WSW 20:46:14 32° NW 20:49:32 10° NNE
STARLINK-44 4.5 20:44:58 10° WSW 20:48:15 31° NW 20:51:34 10° NNE
SWARM C 4.5 20:45:04 10° N 20:48:22 73° W 20:51:40 10° S
SWARM A 4.2 20:45:12 10° N 20:48:28 61° W 20:51:45 10° S
Cosmos 1844 Rocket 3.2 20:44:22 10° NNW 20:49:55 65° ENE 20:55:25 10° SSE
Cosmos 1408 Rocket 4.0 20:46:11 10° SSW 20:50:17 42° W 20:54:23 10° N
STARLINK-1026 4.3 20:49:18 10° WSW 20:53:14 43° NW 20:57:11 10° NNE
Cosmos 1689 Rocket 3.1 20:50:46 10° SSE 20:53:35 50° ENE 20:56:27 10° N
Cosmos 2333 Rocket 2.3 20:48:38 10° SSW 20:54:14 67° WNW 20:59:52 10° NNE
